Location: Brno
(49.2000°N, 16.6330°E)
Time: 18:05:45
(UTC+01:00)

Meteor 1-4 Rocket - Visible Passes

Search period start: 11 December 2017 00:00
Search period end: 21 December 2017 00:00
Orbit: 453 x 507 km, 81.2° (Epoch: 10 December)

Date Brightness Start Highest point End Pass type
(mag) Time Alt. Az. Time Alt. Az. Time Alt. Az.
11 Dec 4.0 05:50:06 10° SSE 05:53:41 42° E 05:57:18 10° NNE visible
11 Dec 3.5 17:11:21 10° NNW 17:14:59 53° W 17:18:33 10° S visible
12 Dec 4.9 05:24:24 10° SSE 05:27:39 27° E 05:30:55 10° NNE visible
12 Dec 3.7 06:59:30 10° SW 07:02:44 26° WNW 07:05:59 10° N visible
12 Dec 2.6 16:45:08 10° NNW 16:48:53 87° WSW 16:52:30 10° S visible
13 Dec 5.5 04:59:00 10° SE 05:01:39 18° E 05:04:18 10° NE visible
13 Dec 3.1 06:32:55 10° SW 06:36:29 39° WNW 06:40:05 10° N visible
13 Dec 6.0 17:55:53 10° WNW 17:57:18 12° W 17:58:42 10° WSW visible
14 Dec 6.0 04:34:09 10° ESE 04:35:41 12° E 04:37:14 10° ENE visible
14 Dec 2.6 06:06:32 10° SSW 06:10:16 61° WNW 06:14:04 10° N visible
14 Dec 5.6 17:28:47 10° NW 17:31:21 18° W 17:33:52 10° SW visible
15 Dec 2.6 05:40:20 10° S 05:44:07 83° E 05:47:56 10° NNE visible
15 Dec 4.9 17:02:11 10° NNW 17:05:20 27° W 17:08:26 10° SSW visible
16 Dec 3.5 05:14:20 10° S 05:18:01 51° E 05:21:43 10° NNE visible
16 Dec 4.3 06:51:08 10° WSW 06:53:27 15° WNW 06:55:46 10° NNW visible
16 Dec 4.0 16:35:47 10° NNW 16:39:17 43° W 16:42:42 10° SSW visible
17 Dec 4.4 04:48:32 10° SSE 04:51:56 33° E 04:55:22 10° NNE visible
17 Dec 3.8 06:24:07 10° WSW 06:27:08 22° WNW 06:30:10 10° NNW visible
18 Dec 5.1 04:22:59 10° SE 04:25:55 22° E 04:28:51 10° NE visible
18 Dec 3.3 06:00:33 32° W 06:00:52 32° WNW 06:04:19 10° N visible
19 Dec 4.9 05:37:50 13° N 05:37:50 13° N 05:38:20 10° N visible
19 Dec 5.6 16:53:27 10° NW 16:55:33 15° W 16:57:38 10° WSW visible
